Regional Weather Roundup
Issued by NWS

Home | Current Version | Previous Version | Text Only | Print | Product List | Glossary Off
Versions: 1 2 3 4 5 6 7 8 9 10 11 12 13 14 15 16 17 18 19 20 21 22 23 24 25 26 27 28 29 30 31 32 33 34 35 36 37 38 39 40 41 42 43 44 45 46 47 48 49 50

000
ASUS43 KMKX 301559
RWRWI

WISCONSIN REGIONAL WEATHER ROUNDUP
NATIONAL WEATHER SERVICE MILWAUKEE/SULLIVAN WI
1000 AM CST FRI JAN 30 2015

NOTE: "FAIR" INDICATES FEW OR NO CLOUDS BELOW 12,000 FEET WITH NO
SIGNIFICANT WEATHER AND/OR OBSTRUCTIONS TO VISIBILITY.

WIZ001-002-006>008-014>016-023>028-301700-
NORTHWEST WISCONSIN

CITY           SKY/WX    TMP DP  RH WIND       PRES   REMARKS
SUPERIOR ARPT  CLOUDY     6   1  79 SW5       30.51F WCI  -3
ASHLAND        PTSUNNY    9   2  73 CALM      30.50F
HAYWARD        CLOUDY     4  -1  80 S3        30.47F
SIREN          MOSUNNY    6   0  76 CALM      30.51S
CUMBERLAND     CLOUDY     3   0  85 CALM      30.48R
RICE LAKE      MOSUNNY    5   1  83 CALM      30.51R
CHETEK         MOSUNNY    6   0  75 CALM      30.51R
LADYSMITH      PTSUNNY    6   1  80 CALM      30.50R
EAU CLAIRE     NOT AVBL
MENOMONIE      CLOUDY     9   2  71 CALM      30.53F
NEW RICHMOND   CLOUDY    10   2  71 SE3       30.51S
OSCEOLA        PTSUNNY   10   2  71 CALM      30.55S
$$

WIZ003>005-009-010-017-018-301700-
NORTH CENTRAL WISCONSIN

CITY           SKY/WX    TMP DP  RH WIND       PRES   REMARKS
MANITOWISH WTR CLOUDY    10   3  75 W6        30.42R WCI   0
ARBOR VITAE    PTSUNNY   11   4  72 CALM      30.42S
WOODRUFF       PTSUNNY   11   4  72 CALM      30.42S
RHINELANDER    CLOUDY    10   3  73 W3        30.43R
EAGLE RIVER    CLOUDY    10   2  68 CALM      30.41S
LAND O LAKES   CLOUDY    11   4  73 W5        30.41S WCI   3
PHILLIPS       PTSUNNY    8   2  77 CALM      30.44R
TOMAHAWK       MOSUNNY   11   2  68 CALM      30.45R
MEDFORD        PTSUNNY    8   3  78 CALM      30.45R
MERRILL        PTSUNNY   12   3  68 CALM      30.46S
$$

WIZ029-030-035-036-043>047-301700-
CENTRAL WISCONSIN

CITY           SKY/WX    TMP DP  RH WIND       PRES   REMARKS
WAUSAU         MOSUNNY   13   4  67 W6        30.47R WCI   4
MOSINEE        NOT AVBL
MARSHFIELD     PTSUNNY   10   3  73 W5        30.49R WCI   2
STEVENS POINT  PTSUNNY   12   3  66 CALM      30.49S
WAUPACA        PTSUNNY   19   5  54 CALM      30.52R
WAUTOMA        NOT AVBL
WISC RAPIDS    CLOUDY    14   4  64 CALM      30.51S
CAMP DOUGLAS   NOT AVBL
$$

WIZ011>013-019>022-031-037>040-048>050-301700-
NORTHEAST WISCONSIN

CITY           SKY/WX    TMP DP  RH WIND       PRES   REMARKS
ANTIGO         CLOUDY    11   4  71 CALM      30.44S
SHAWANO        MOSUNNY   17   4  57 CALM      30.52R
OCONTO         CLOUDY    15   4  61 MISG      30.52S
STURGEON BAY   MOSUNNY   12   1  62 N10       30.53S WCI  -1
GREEN BAY      SUNNY     18   6  59 VRB3      30.53R
MANITOWOC      NOT AVBL
APPLETON       MOSUNNY   16   3  57 N5        30.51R WCI   9
CLINTONVILLE   PTSUNNY   18   5  57 NE5       30.51R WCI  11
OSHKOSH        SUNNY     19   6  57 N6        30.52R WCI  11
$$

WIZ032>034-041-042-053>061-301700-
SOUTHWEST WISCONSIN

CITY           SKY/WX    TMP DP  RH WIND       PRES   REMARKS
LA CROSSE      MOSUNNY   15   5  64 VRB3      30.57R
SPARTA         PTSUNNY   13   4  69 CALM      30.55S
VIROQUA        MOSUNNY   13   6  75 CALM      30.51R
BOSCOBEL       PTSUNNY   18   8  65 S5        30.56S WCI  11
PRAIRIE DU CHI FAIR      17   7  67 CALM      30.56S
PLATTEVILLE    MOSUNNY   17   9  72 W3        30.53R
$$

WIZ056-057-062-063-064-067-068-301700-
SOUTH CENTRAL WISCONSIN

CITY           SKY/WX    TMP DP  RH WIND       PRES   REMARKS
REEDSBURG      CLOUDY    14   7  73 CALM      30.52R
BARABOO/DELLS  PTSUNNY   15   7  69 CALM      30.51R
LONE ROCK      NOT AVBL
MINERAL POINT  PTSUNNY   19  10  68 CALM      30.51R
MADISON        PTSUNNY   19   9  65 NW3       30.52R
MIDDLETON      PTSUNNY   18   8  62 N3        30.53R
WATERTOWN      MOSUNNY   19   8  62 N6        30.51R WCI  11
MONROE         CLOUDY    19  10  68 N5        30.50R WCI  13
JANESVILLE     SUNNY     21   9  58 N5        30.53R WCI  15
$$

WIZ051-052-058>065-066-070>072-301700-
SOUTHEAST WISCONSIN

CITY           SKY/WX    TMP DP  RH WIND       PRES   REMARKS
MILWAUKEE      MOSUNNY   22   6  50 N6        30.52R WCI  14
WAUKESHA       SUNNY     19   7  58 NW6       30.51S WCI  11
MILWAUKEE/TIMM SUNNY     21   7  53 NW5       30.52R WCI  15
RACINE         SUNNY     23   8  52 NW8       30.53R WCI  14
BURLINGTON     MOSUNNY   19   6  55 NE8       30.51S WCI   9
KENOSHA        MOSUNNY   23   8  52 N6        30.52R WCI  16
FOND DU LAC    SUNNY     19   6  57 N9        30.52R WCI   8
SHEBOYGAN      SUNNY     19   7  59 VRB6      30.52R WCI  11
WEST BEND      SUNNY     19   7  58 N3        30.50R
JUNEAU         MOSUNNY   18   7  63 NW6       30.52R WCI   9
$$

LSZ147-162-301700-
LAKE SUPERIOR

STATION/POSITION TIME  TEMP    WIND        PRES    WAVE
                       AIR SEA DIR/SP/G            HT/PER
                 (UTC) (F)     (DEG/KT/KT) (MB)    (FT/S)
DEVILS ISLAND    1500   13     260/  9/ 14 1033.9F
PORT WING        1500    8     200/  7/  9 1033.2S
SAXON HARBOR     1500   12      CALM  /  6 1032.8S
$$

LMZ867-665-643>646-301700-
LAKE MICHIGAN

STATION/POSITION TIME  TEMP    WIND        PRES    WAVE
                       AIR SEA DIR/SP/G            HT/PER
                 (UTC) (F)     (DEG/KT/KT) (MB)    (FT/S)
NORTHPORT PIER   1511   14     310/ 13/ 17 1033.2R
SISTER BAY       1513   16     350/  9/ 11   N/A
KEWAUNEE LAKESHO 1500   14     350/  5/ 10 1032.4R
SHEBOYGAN LAKESH 1500   18     340/ 10/ 12 1034.6R
PORT WASHINGTON  1500   20     350/  4/  9 1033.9R
MILWAUKEE LAKESH 1500   20     330/  6/  9   N/A
KENOSHA   LAKESH 1500   20     330/ 10/ 12 1032.8R
$$

TC  - TEMPERATURE IN CELSIUS
VSB - VISIBILITY IN STATUTE MILES
WCI - WIND CHILL INDEX
HX  - HEAT INDEX



USA.gov is the U.S. government's official web portal to all federal, state and local government web resources and services.